[[{"header":{"parameterUnit":"m.s-1","parameterCategory":1,"la1":30.2991,"la2":30.254,"lo1":-89.0895,"lo2":-89.0444,"dy":0.0017,"dx":0.0017,"nx":28,"ny":28,"refTime":"2024-06-25T03:00:00:Z","depth":0,"parameterNumber":2,"parameterNumberName":"U-component_of_WINDS"},"data":[0,0,0,0,0,0,0,0,0,0,0,0,0,0,0,0,0,0,0,0,0,0,0,0,0,0,0,0,0,0,0,0,0,0,0,0,0,0,0,0,0,0,0,0,0,0,0,0,0,0,0,0,0,0,0,0,0,0,5.4439,5.444,0,5.4481,5.4482,5.4482,5.4352,5.4348,5.4344,5.4341,5.4381,5.4385,5.439,0,0,0,0,0,0,0,0,0,0,0,0,0,5.4243,5.4247,5.4439,5.444,5.444,5.4481,5.4482,5.4482,5.4353,5.4348,5.4343,5.4339,5.4379,5.4385,5.439,0,0,0,0,0,0,0,0,0,0,0,0,0,5.4311,5.4249,5.4439,5.4381,5.4376,5.4481,5.4482,5.4483,5.4354,5.4348,5.4342,5.4337,5.4377,5.4384,5.4391,5.4554,0,0,5.4413,5.4416,0,0,0,0,0,0,0,0,5.4307,5.4318,5.4389,5.4385,5.438,5.4406,5.4427,5.4507,5.4355,5.4362,5.4341,5.4334,5.4394,5.4399,5.442,5.4556,5.4558,5.4414,5.4418,5.4421,5.4423,0,0,0,0,0,0,0,5.4303,5.4316,5.4456,5.439,5.4385,5.4351,5.4354,5.4442,5.4411,5.4361,5.4352,5.4359,5.439,5.4413,5.442,5.4558,5.4414,5.442,5.4424,5.4427,5.4828,5.4834,0,0,0,0,0,0,5.4306,5.4313,5.4454,5.4457,5.4328,5.436,5.4363,5.4403,5.4409,5.4405,5.4364,5.4353,5.4404,5.4412,5.4421,5.4609,5.4421,5.4428,5.4432,5.4821,5.4829,5.4836,0,0,0,0,0,0,5.4303,5.432,5.4453,5.4383,5.4397,5.4369,5.4415,5.4407,5.443,5.4411,5.4405,5.4394,5.44,5.4411,5.4522,5.4609,5.4431,5.4437,5.4814,5.4824,5.4832,5.499,0,0,0,0,0,0,5.4298,5.432,5.4382,5.4385,5.4401,5.4554,5.4421,5.4412,5.4443,5.4429,5.4437,5.4433,5.4396,5.4512,5.4529,5.4615,5.4443,5.4806,5.4818,5.4829,5.4976,5.5003,5.5026,0,0,0,0,0,5.4291,5.4424,5.4386,5.4404,5.4479,5.456,5.4569,5.4524,5.4451,5.4512,5.45,5.4433,5.4598,5.4524,5.4542,5.4633,5.48,5.4815,5.4828,5.4965,5.4998,5.5026,0,0,0,0,0,0,5.4431,5.4424,5.4381,5.4519,5.4541,5.4538,5.4614,5.4561,5.4603,5.4587,5.4529,5.4532,5.4653,5.4654,5.4573,5.4789,5.4686,5.4705,5.4784,5.4815,5.4839,5.4835,5.4449,0,0,0,0,0,5.4479,5.4546,5.4535,5.4659,5.4672,5.4642,5.4675,5.4639,5.4659,5.4667,5.4663,5.4684,5.474,5.4778,5.4829,5.4977,5.4975,5.5048,5.5073,5.5094,5.5109,5.5185,5.5217,5.4883,5.4883,5.4882,0,0,5.4576,5.4581,5.4626,5.4687,5.47,5.4769,5.465,5.4729,5.478,5.4679,5.4782,5.4781,5.48,5.493,5.4987,5.4934,5.5202,5.5112,5.5129,5.5133,5.5203,5.5235,5.5263,5.4893,5.4891,5.4889,0,0,5.4789,5.4801,5.4903,5.4919,5.494,5.4919,5.4944,5.4949,5.4944,5.5048,5.4973,5.5032,5.513,5.5146,5.5168,5.5388,5.5326,5.5407,5.5536,5.561,5.5637,5.566,5.5735,5.5763,5.5423,5.5423,5.5424,0,5.4907,5.501,5.4963,5.5047,5.5074,5.4988,5.509,5.5108,5.5144,5.5165,5.5106,5.5227,5.5235,5.5366,5.5419,5.5441,5.5465,5.5403,5.5637,5.566,5.568,5.5752,5.5781,5.5433,5.5432,5.5431,5.543,0,5.5153,5.5226,5.5306,5.5344,5.5382,5.5475,5.544,5.5483,5.5444,5.5429,5.5535,5.5541,5.5591,5.562,5.5583,5.5746,5.5712,5.5647,5.5541,5.5722,5.5788,5.5815,5.5446,5.5443,5.544,5.5438,0,0,5.5453,5.5464,5.5494,5.551,5.5527,5.5582,5.5671,5.572,5.5757,5.5786,5.5857,5.5943,5.5882,5.5906,5.587,5.5937,5.6107,5.5862,5.5862,5.5905,5.6284,5.6331,5.6363,5.6068,5.6074,5.6078,5.6281,0,5.566,5.5812,5.5772,5.5924,5.5989,5.5908,5.5985,5.6004,5.5992,5.6045,5.6032,5.6093,5.601,5.6023,5.6086,5.6074,5.6182,5.6059,5.6131,5.6134,5.6125,5.6398,5.6448,5.664,5.6307,5.6312,5.6315,0,5.5921,5.596,5.6119,5.6124,5.615,5.622,5.6261,5.6314,5.6333,5.6319,5.6348,5.6298,5.6384,5.6281,5.6397,5.6314,5.6342,5.634,5.6347,5.6348,5.6233,5.6404,5.67,5.6728,5.6355,5.6352,5.6349,0,5.612,5.6213,5.6318,5.6335,5.6345,5.6396,5.6402,5.6415,5.6447,5.6484,5.6503,5.6549,5.6574,5.661,5.6574,5.6503,5.6695,5.6589,5.6684,5.6685,5.6724,5.6722,5.7026,5.6749,5.6749,5.6748,5.6748,0,5.6353,5.6452,5.6407,5.6472,5.658,5.6534,5.6641,5.6639,5.6651,5.6713,5.6647,5.6706,5.6656,5.6711,5.6683,5.6782,5.6794,5.6784,5.6775,5.6788,5.6789,5.6802,5.6787,5.6756,5.6754,5.6753,5.6751,0,5.6592,5.6566,5.6676,5.6677,5.668,5.6759,5.6759,5.6818,5.6803,5.6882,5.6897,5.6873,5.6933,5.6902,5.6965,5.6946,5.7073,5.7047,5.7066,5.7058,5.7153,5.7143,5.7473,5.7513,5.7215,5.7218,5.7221,0,5.674,5.6814,5.6824,5.6861,5.6872,5.6933,5.6965,5.6922,5.6959,5.6986,5.7041,5.7096,5.7137,5.7238,5.7225,5.7272,5.7245,5.7357,5.7251,5.7261,5.7242,5.7236,5.7242,5.7377,5.7381,5.7384,5.7386,0,5.7005,5.6989,5.7039,5.7085,5.7126,5.7159,5.7187,5.7221,5.7179,5.7223,5.7284,5.7317,5.7381,5.7435,5.7476,5.7481,5.7426,5.742,5.7444,5.7456,5.7462,5.7456,5.712,5.7412,5.7409,5.7407,5.7406,5.7405,5.7201,5.7262,5.7278,5.7335,5.7352,5.738,5.7435,5.7427,5.7478,5.7527,5.7499,5.7571,5.7587,5.7636,5.7648,5.7702,5.7657,5.7692,5.77,5.7709,5.772,5.7458,5.771,5.7709,5.7709,5.7708,5.7707,0,5.7459,5.7466,5.752,5.7561,5.7606,5.7553,5.7581,5.7621,5.7685,5.7706,5.7748,5.7818,5.7871,5.7863,5.791,5.7955,5.7931,5.7969,5.7963,5.7964,5.776,5.7733,5.7987,5.7987,5.7987,5.7987,5.7987,5.7987,5.7599,5.7699,5.7685,5.7793,5.7798,5.7868,5.7888,5.7913,5.7929,5.801,5.8054,5.8049,5.8057,5.8105,5.815,5.8146,5.8165,5.8212,5.8198,5.8007,5.7979,5.7952,5.7926,5.8217,5.8218,5.8397,5.8399,5.84]},{"header":{"parameterUnit":"m.s-1","parameterCategory":1,"la1":30.2991,"la2":30.254,"lo1":-89.0895,"lo2":-89.0444,"dy":0.0017,"dx":0.0017,"nx":28,"ny":28,"refTime":"2024-06-25T03:00:00:Z","depth":0,"parameterNumber":3,"parameterNumberName":"V-component_of_WINDS"},"data":[0,0,0,0,0,0,0,0,0,0,0,0,0,0,0,0,0,0,0,0,0,0,0,0,0,0,0,0,0,0,0,0,0,0,0,0,0,0,0,0,0,0,0,0,0,0,0,0,0,0,0,0,0,0,0,0,0,0,2.6952,2.6953,0,2.7053,2.7054,2.7055,2.7041,2.704,2.7038,2.7037,2.7135,2.7139,2.7143,0,0,0,0,0,0,0,0,0,0,0,0,0,2.6743,2.6747,2.6952,2.6953,2.6955,2.7052,2.7054,2.7055,2.7042,2.704,2.7038,2.7036,2.7134,2.7139,2.7144,0,0,0,0,0,0,0,0,0,0,0,0,0,2.6838,2.6748,2.6952,2.696,2.6961,2.7052,2.7054,2.7056,2.7042,2.704,2.7037,2.7035,2.7132,2.7138,2.7145,2.7233,0,0,2.7164,2.7166,0,0,0,0,0,0,0,0,2.6832,2.6845,2.6957,2.6959,2.6961,2.7032,2.7016,2.7115,2.7043,2.7011,2.7036,2.7034,2.7103,2.7111,2.7135,2.7237,2.7241,2.7164,2.7168,2.7171,2.7172,0,0,0,0,0,0,0,2.6826,2.6841,2.6992,2.6959,2.6961,2.6956,2.6967,2.7035,2.7069,2.7014,2.7013,2.7025,2.7103,2.7129,2.7138,2.7243,2.7164,2.717,2.7173,2.7176,2.742,2.7422,0,0,0,0,0,0,2.6818,2.6836,2.6988,2.6995,2.689,2.6962,2.6974,2.7012,2.7069,2.7075,2.7027,2.7024,2.712,2.713,2.7141,2.7247,2.7171,2.7176,2.718,2.7417,2.742,2.7423,0,0,0,0,0,0,2.6813,2.6832,2.6984,2.6915,2.6934,2.6969,2.7011,2.7015,2.7041,2.7079,2.7085,2.7048,2.7118,2.7132,2.721,2.725,2.7179,2.7185,2.7414,2.7418,2.7422,2.746,0,0,0,0,0,0,2.6808,2.683,2.6865,2.6916,2.6938,2.7053,2.7013,2.7019,2.7053,2.705,2.71,2.7106,2.7117,2.72,2.7216,2.7257,2.719,2.741,2.7416,2.742,2.7455,2.7465,2.7473,0,0,0,0,0,2.68,2.6872,2.6867,2.6886,2.6983,2.7056,2.7068,2.7081,2.7056,2.7091,2.7114,2.7104,2.7243,2.7209,2.7226,2.727,2.7408,2.7414,2.742,2.7451,2.7463,2.7472,0,0,0,0,0,0,2.6824,2.6878,2.6874,2.6965,2.7006,2.7053,2.7098,2.7093,2.7142,2.7137,2.7149,2.7161,2.7239,2.7262,2.7223,2.7357,2.7322,2.7331,2.7339,2.7351,2.7359,2.7352,2.7195,0,0,0,0,0,2.684,2.6896,2.694,2.7015,2.7036,2.7063,2.7096,2.7102,2.7145,2.7162,2.7191,2.7232,2.7284,2.7319,2.7369,2.7458,2.7468,2.7496,2.7505,2.7512,2.7521,2.7567,2.758,2.7443,2.7443,2.7443,0,0,2.6873,2.691,2.6944,2.7021,2.7054,2.711,2.7078,2.7139,2.718,2.717,2.7246,2.7269,2.7314,2.7398,2.7436,2.7419,2.756,2.752,2.7525,2.753,2.7575,2.7588,2.76,2.7447,2.7447,2.7446,0,0,2.6962,2.6996,2.7062,2.7095,2.7145,2.7163,2.7178,2.7227,2.7242,2.7318,2.7311,2.7359,2.745,2.7482,2.7511,2.761,2.7602,2.7626,2.7672,2.7718,2.7729,2.7738,2.7773,2.7785,2.7634,2.7634,2.7634,0,2.6997,2.7083,2.7096,2.7158,2.7191,2.7185,2.7251,2.7282,2.7345,2.7368,2.7348,2.7461,2.7491,2.7581,2.7605,2.7629,2.7646,2.762,2.7726,2.7736,2.7745,2.7778,2.7791,2.7637,2.7636,2.7636,2.7636,0,2.7122,2.7181,2.7228,2.7291,2.7329,2.7392,2.7414,2.745,2.7453,2.7471,2.7547,2.7584,2.7641,2.7662,2.7665,2.7752,2.774,2.7724,2.7689,2.7761,2.7792,2.7805,2.764,2.7639,2.7639,2.7638,0,0,2.723,2.7298,2.7315,2.7343,2.7397,2.7442,2.7504,2.7561,2.7592,2.7635,2.7686,2.7762,2.7747,2.7779,2.7785,2.7825,2.79,2.7803,2.7804,2.7819,2.7996,2.8008,2.8023,2.7894,2.7897,2.7899,2.7992,0,2.7324,2.7435,2.7448,2.7547,2.7601,2.7595,2.7649,2.7687,2.7705,2.7752,2.7772,2.7826,2.7802,2.7821,2.786,2.7882,2.7935,2.7876,2.7941,2.7943,2.793,2.8039,2.8053,2.8139,2.8004,2.8007,2.8008,0,2.7449,2.7496,2.7601,2.7646,2.7669,2.7717,2.777,2.7815,2.7857,2.7868,2.7903,2.7903,2.7965,2.7927,2.8012,2.7971,2.7998,2.8012,2.8016,2.8022,2.798,2.8048,2.8167,2.818,2.8027,2.8026,2.8025,0,2.7516,2.7606,2.768,2.7704,2.7759,2.7792,2.7816,2.7856,2.7889,2.7934,2.7955,2.8006,2.8034,2.8072,2.8086,2.8057,2.8169,2.8132,2.8178,2.8177,2.8202,2.82,2.8326,2.822,2.8219,2.8219,2.8219,0,2.7619,2.7683,2.7711,2.7756,2.7826,2.784,2.7908,2.7931,2.7966,2.8014,2.8011,2.8056,2.8071,2.8118,2.8128,2.8195,2.8208,2.8217,2.8219,2.8217,2.8216,2.8235,2.8229,2.8223,2.8222,2.8221,2.8221,0,2.7706,2.7728,2.7808,2.7853,2.7866,2.7916,2.7953,2.7996,2.8014,2.8074,2.8089,2.8116,2.8171,2.8188,2.8253,2.826,2.8339,2.8336,2.8325,2.8325,2.837,2.8365,2.8512,2.8532,2.8413,2.8414,2.8415,0,2.7771,2.782,2.7871,2.7903,2.7929,2.7982,2.8015,2.8029,2.8064,2.8114,2.815,2.8205,2.8249,2.8336,2.836,2.841,2.8408,2.8456,2.8415,2.8411,2.8407,2.8404,2.8409,2.8463,2.8465,2.8466,2.8466,0,2.7883,2.7891,2.794,2.7993,2.8033,2.8075,2.8115,2.8142,2.8161,2.82,2.8257,2.8291,2.8358,2.8411,2.8461,2.8484,2.8478,2.8479,2.8492,2.8491,2.8482,2.8487,2.8346,2.8476,2.8475,2.8474,2.8474,2.8473,2.796,2.8003,2.8045,2.81,2.8132,2.8169,2.8211,2.8234,2.8282,2.8339,2.8343,2.8404,2.8442,2.8509,2.8534,2.858,2.8566,2.8585,2.859,2.8595,2.8598,2.8475,2.859,2.8589,2.8589,2.8589,2.8589,0,2.8071,2.8098,2.8148,2.8205,2.8247,2.8239,2.8283,2.8318,2.8372,2.8409,2.8453,2.8517,2.8568,2.8596,2.8647,2.8678,2.8677,2.8691,2.8689,2.8694,2.8608,2.8591,2.8691,2.8691,2.8691,2.8691,2.8691,2.8691,2.8134,2.8206,2.8218,2.8305,2.8331,2.8391,2.8417,2.845,2.848,2.8552,2.8595,2.8613,2.8646,2.8699,2.8745,2.8752,2.877,2.8786,2.8791,2.871,2.87,2.869,2.8674,2.879,2.879,2.8873,2.8873,2.8874]}]]